GW1682 Weather Reports


time (UTC)temp
C
wind
direction
speed
KPH
gust
KPH
rain 1hr
cm
rain 24hr
cm
rain mn
cm
humidity
%
barometer
mb
20260903194959 28 10 6.4 14.5 0.00 0.00 0.00 36 1013.6
20260903193501 28 65 6.4 17.7 0.00 0.00 0.00 37 1013.5
20260903192000 28 351 6.4 17.7 0.00 0.00 0.00 37 1013.4
20260903190501 28 6 4.8 14.5 0.00 0.00 0.00 38 1013.2
20260903183501 28 343 1.6 9.7 0.00 0.00 0.00 38 1013.0
20260903181956 28 32 1.6 8.0 0.00 0.00 0.00 38 1012.8
20260903180500 28 23 0.0 8.0 0.00 0.00 0.00 38 1012.8
20260903174958 28 275 1.6 16.1 0.00 0.00 0.00 39 1012.8
20260903173501 28 149 3.2 9.7 0.00 0.00 0.00 39 1012.6
20260903164955 29 35 3.2 14.5 0.00 0.00 0.00 40 1012.4
20260903163459 30 183 6.4 14.5 0.00 0.00 0.00 39 1012.4
20260903161957 30 7 8.0 17.7 0.00 0.00 0.00 38 1012.2
20260903160455 30 341 6.4 17.7 0.00 0.00 0.00 38 1012.1
20260903153453 30 35 6.4 22.5 0.00 0.00 0.00 39 1012.0
20260903150453 31 63 6.4 22.5 0.00 0.00 0.00 40 1012.0
20260903144950 31 11 9.7 22.5 0.00 0.00 0.00 40 1012.2
20260903141948 31 0 9.7 22.5 0.00 0.00 0.00 36 1012.0
20260903140442 32 341 16.1 30.6 0.00 0.00 0.00 37 1012.0
20260903133447 32 0 11.3 22.5 0.00 0.00 0.00 38 1011.7
20260903131942 32 0 11.3 24.1 0.00 0.00 0.00 38 1011.8
20260903130442 32 327 4.8 22.5 0.00 0.00 0.00 38 1012.0
20260903124936 32 13 9.7 20.9 0.00 0.00 0.00 38 1012.0
20260903123435 32 0 12.9 24.1 0.00 0.00 0.00 39 1012.1
20260903121933 32 0 11.3 22.5 0.00 0.00 0.00 39 1012.1
20260903114930 32 355 9.7 29.0 0.00 0.00 0.00 39 1012.5
20260903113432 32 17 9.7 25.7 0.00 0.00 0.00 39 1012.5
20260903111930 32 344 8.0 25.7 0.00 0.00 0.00 39 1012.6
20260903110429 32 55 6.4 20.9 0.00 0.00 0.00 39 1012.6
20260903104929 32 79 9.7 20.9 0.00 0.00 0.00 39 1012.7
20260903103431 32 336 4.8 20.9 0.00 0.00 0.00 40 1012.6
20260903101930 32 20 9.7 22.5 0.00 0.00 0.00 40 1012.8
20260903100428 32 110 8.0 22.5 0.00 0.00 0.00 38 1012.8
20260903094929 32 314 6.4 24.1 0.00 0.00 0.00 38 1012.9
20260903093429 32 11 1.6 25.7 0.00 0.00 0.00 38 1013.0
20260903091928 32 337 8.0 25.7 0.00 0.00 0.00 41 1013.3
20260903090428 31 68 9.7 22.5 0.00 0.00 0.00 40 1013.3
20260903084931 31 28 6.4 25.7 0.00 0.00 0.00 40 1013.4
20260903083429 31 37 9.7 17.7 0.00 0.00 0.00 41 1013.5
20260903081929 30 317 16.1 24.1 0.00 0.00 0.00 41 1013.7
20260903080429 30 0 8.0 17.7 0.00 0.00 0.00 43 1013.4
20260903074936 30 348 11.3 24.1 0.00 0.00 0.00 45 1013.6
20260903071929 29 350 6.4 22.5 0.00 0.00 0.00 47 1013.5
20260903070429 28 1 12.9 20.9 0.00 0.00 0.00 46 1013.6
20260903063428 28 331 8.0 19.3 0.00 0.00 0.00 46 1013.3
20260903061929 28 340 8.0 17.7 0.00 0.00 0.00 49 1013.3
20260903060428 27 6 4.8 17.7 0.00 0.00 0.00 51 1013.3
20260903054929 27 347 3.2 20.9 0.00 0.00 0.00 51 1013.3
20260903050429 26 353 8.0 24.1 0.00 0.00 0.00 52 1013.5
20260903044934 27 320 14.5 25.7 0.00 0.00 0.00 50 1013.6
20260903043428 27 20 4.8 17.7 0.00 0.00 0.00 47 1013.5
20260903041929 27 0 8.0 14.5 0.00 0.00 0.00 45 1013.3
20260903040428 27 338 6.4 11.3 0.00 0.00 0.00 44 1013.3
20260903034929 27 7 4.8 16.1 0.00 0.00 0.00 43 1013.3
20260903033435 28 357 0.0 9.7 0.00 0.00 0.00 42 1013.1
20260903031929 28 35 3.2 19.3 0.00 0.00 0.00 41 1013.1
20260903024929 28 24 4.8 17.7 0.00 0.00 0.00 40 1013.0
20260903023429 28 34 1.6 8.0 0.00 0.00 0.00 41 1013.1
20260903021931 28 131 3.2 11.3 0.00 0.00 0.00 41 1013.1
20260903020431 28 4 3.2 11.3 0.00 0.00 0.00 40 1013.1
20260903014929 28 3 4.8 16.1 0.00 0.00 0.00 40 1013.0
20260903013429 28 37 9.7 17.7 0.00 0.00 0.00 39 1013.1
20260903011929 28 21 3.2 14.5 0.00 0.00 0.00 40 1013.2
20260903010428 27 357 3.2 9.7 0.00 0.00 0.00 41 1013.2
20260903003431 27 0 1.6 8.0 0.00 0.00 0.00 40 1013.1
20260903001929 28 80 3.2 8.0 0.00 0.00 0.00 39 1013.0
20260903000429 28 0 3.2 11.3 0.00 0.00 0.00 40 1013.0
20260902234931 28 93 1.6 6.4 0.00 0.00 0.00 40 1013.1
20260902233434 28 343 0.0 9.7 0.00 0.00 0.00 39 1013.2
20260902231930 28 0 3.2 16.1 0.00 0.00 0.00 39 1013.3
20260902230429 28 351 4.8 8.0 0.00 0.00 0.00 39 1013.3
20260902224931 28 1 1.6 8.0 0.00 0.00 0.00 38 1013.4
20260902223428 28 18 3.2 8.0 0.00 0.00 0.00 38 1013.5
20260902221929 28 14 1.6 8.0 0.00 0.00 0.00 38 1013.7
20260902220428 29 338 3.2 8.0 0.00 0.00 0.00 38 1013.6
20260902214929 28 10 1.6 4.8 0.00 0.00 0.00 38 1013.8
20260902213429 28 0 1.6 6.4 0.00 0.00 0.00 38 1013.9
20260902211929 28 353 3.2 8.0 0.00 0.00 0.00 38 1014.0
20260902210428 29 0 0.0 4.8 0.00 0.00 0.00 37 1014.1
20260902204934 29 321 0.0 0.0 0.00 0.00 0.00 36 1014.1